Weather Roundup
Issued by NWS Springfield, MO

Home | Current Version | Previous Version | Text Only | Print | Product List | Glossary On
Versions: 1 2 3 4 5 6 7 8 9 10 11 12 13 14 15 16 17 18 19 20 21 22 23 24 25 26 27 28 29 30 31 32 33 34 35 36 37 38 39 40 41 42 43 44 45 46 47 48 49 50
758
NZUS99 KSGF 222257
HRRSGF

HOURLY WEATHER
NATIONAL WEATHER SERVICE SPRINGFIELD MO
600 PM CDT FRI SEP 22 2017

......SGF CWA......

CITY           SKY/WX    TMP DP  RH WIND       PRES   REMARKS
SPRINGFIELD    SUNNY     88  66  48 SE7       29.98F HX  90
JOPLIN         SUNNY     86  69  56 S9        29.96F HX  90
WEST PLAINS    MOSUNNY   89  61  38 S6        30.02S
ROLLA          SUNNY     84  66  54 S3        30.01S
BRANSON        MOSUNNY   90  63  40 S7        30.00F HX  90

......SURROUNDING SGF CWA......

CITY           SKY/WX    TMP DP  RH WIND       PRES   REMARKS
CHANUTE        SUNNY     87  68  52 S14       29.93S HX  90
PARSONS        SUNNY     87  68  52 S8        29.93F HX  90
COFFEYVILLE    SUNNY     88  68  51 S16       29.91F HX  91
EMPORIA        SUNNY     87  67  51 SE18G25   29.89S HX  90
HARRISON AR    SUNNY     88  64  44 S8        30.00S

......KANSAS AND MISSOURI......

CITY           SKY/WX    TMP DP  RH WIND       PRES   REMARKS
KANSAS CTY INT MOSUNNY   85  69  58 S16       29.92F
SEDALIA        SUNNY     88  69  53 S9        29.98S HX  92
ST JOSEPH      SUNNY     88  70  55 S13G23    29.90S HX  93
ST LOUIS       MOSUNNY   92  60  34 SE9       29.99R HX  91
WICHITA        MOSUNNY   91  66  43 S21G30    29.86R HX  93
TOPEKA         SUNNY     88  70  55 SE20G25   29.89S HX  93
OLATHE         SUNNY     84  70  62 S13G22    29.94S

......TENNESSEE......

CITY           SKY/WX    TMP DP  RH WIND       PRES   REMARKS
MEMPHIS        NOT AVBL
NASHVILLE      PTCLDY    87  65  47 N6        30.00F

......ARKANSAS.......

CITY           SKY/WX    TMP DP  RH WIND       PRES   REMARKS
FAYETTEVILLE   SUNNY     86  68  54 SE7       29.99S
FT SMITH       MOSUNNY   93  64  38 S5        29.92S HX  94
LITTLE ROCK    MOSUNNY   89  67  47 S6        29.94F HX  92

......OKLAHOMA.......

CITY           SKY/WX    TMP DP  RH WIND       PRES   REMARKS
TULSA          MOSUNNY   89  68  49 S14G22    29.90S HX  93
PONCA CITY     SUNNY     88  68  51 S22G28    29.88S HX  91
MCALESTER      SUNNY     90  66  45 VRB5      29.93F HX  92
OKLAHOMA CITY  MOSUNNY   86  67  52 S16G25    29.90F

......IOWA............

CITY           SKY/WX    TMP DP  RH WIND       PRES   REMARKS
DES MOINES     NOT AVBL
QUAD CITIES    SUNNY     90  64  42 S6        29.97S HX  91

......ILLINOIS........

CITY           SKY/WX    TMP DP  RH WIND       PRES   REMARKS
QUINCY         NOT AVBL
CHICAGO        PTCLDY    92  64  39 SW8       30.01S HX  93




USA.gov is the U.S. government's official web portal to all federal, state and local government web resources and services.